Content
SEND FEEDBACK

Daily
Averages
Monthly
Summary
United States of America

POTTS JUNCTION, GUAM


Home > North America > United States > Guam
Elevation: 360 feet     Latitude: 13 33N     Longitude: 144 50E

WEATHER
 
SELECT A DAY
Number of Records: 209,285;   Date Range: 1/1/95 - 9/16/14
 
SHARE

PRINT THIS DATA

[ ← Previous Day ]
WEATHER ALMANAC - MAY 17, 2013
[ Next Day → ]
[ °C ]   °F
Weather ElementAverageHighLow
Temperature86.3 °F91.4 °F (12:04 pm)82 °F (4:54 am)
Dewpoint74.8 °F77 °F (1:54 am)73 °F (3:54 pm)
Humidity68.9 %82 % (1:54 am)55 % (12:04 pm)
Barometer26.31 in29.94 in (9:54 pm) (7:00 pm)
Wind Speed9.5 mph16.1 mph (12:04 pm)
Wind Gust24.2 mph (11:24 am)
Weather ElementAverage
Visibility10 mi
Wind DirectionENE (79.6 °)

Weather ElementTotal
Precipitation---
Cooling Degree Days21.7 (Base 65)
Growing Degree Days36.7 (Base 50)
Averaged from 25 records on May 17, 2013
WEATHER CONDITIONS BREAKOUT
WIND DIRECTION BREAKOUT
WEATHER BY HOUR - MAY 17, 2013
[ °C ]   °F
Local TimeTemperatureDewpointHumidityBarometerVisibilityWind DirectionWind SpeedGust SpeedPrecipitationEventsConditions
1:54 AM82.9 °F77.0 °F82 %10.0 miEast (80°)4.6 mphPartly Cloudy
2:54 AM82.9 °F75.9 °F79 %29.86 in10.0 miENE (70°)5.8 mphPartly Cloudy
3:54 AM82.9 °F75.9 °F79 %29.85 in10.0 miEast (80°)6.9 mphClear
4:54 AM82.0 °F75.9 °F82 %10.0 miEast (80°)4.6 mphPartly Cloudy
5:54 AM82.0 °F75.0 °F79 %10.0 miEast (80°)4.6 mphClear
6:54 AM84.0 °F75.9 °F76 %29.86 in10.0 miENE (60°)6.9 mphScattered Clouds
7:54 AM86.0 °F75.9 °F72 %29.87 in10.0 miENE (70°)11.5 mphPartly Cloudy
8:54 AM88.0 °F75.0 °F65 %29.93 in10.0 miENE (70°)11.5 mphScattered Clouds
9:54 AM88.0 °F75.9 °F67 %29.93 in10.0 miEast (80°)13.8 mph0.00 inScattered Clouds
10:54 AM89.1 °F75.0 °F63 %29.92 in10.0 miEast (80°)10.4 mphPartly Cloudy
11:24 AM87.8 °F75.2 °F66 %29.93 in10.0 miEast (90°)12.7 mph24.2 mphMostly Cloudy
11:54 AM90.0 °F73.9 °F59 %29.90 in10.0 miENE (70°)15.0 mph21.9 mphMostly Cloudy
12:04 PM91.4 °F73.4 °F55 %29.92 in10.0 miENE (70°)16.1 mphMostly Cloudy
12:54 PM91.0 °F73.9 °F57 %29.88 in10.0 miEast (90°)12.7 mph21.9 mphMostly Cloudy
1:54 PM90.0 °F73.9 °F59 %29.86 in10.0 miEast (90°)13.8 mphScattered Clouds
2:54 PM89.1 °F73.9 °F61 %29.85 in10.0 miEast (90°)13.8 mph20.7 mphScattered Clouds
3:54 PM89.1 °F73.0 °F59 %29.85 in10.0 miESE (110°)12.7 mphScattered Clouds
4:54 PM89.1 °F73.0 °F59 %29.85 in10.0 miEast (90°)10.4 mphPartly Cloudy
5:54 PM87.1 °F73.9 °F65 %29.87 in10.0 miEast (90°)10.4 mphPartly Cloudy
6:54 PM86.0 °F73.9 °F67 %29.90 in10.0 miENE (60°)8.1 mphPartly Cloudy
7:54 PM84.9 °F75.0 °F72 %29.91 in10.0 miEast (80°)5.8 mphScattered Clouds
8:54 PM84.0 °F75.0 °F74 %29.92 in10.0 miENE (70°)6.9 mph0.00 inScattered Clouds
9:54 PM84.0 °F75.0 °F74 %29.94 in10.0 miENE (70°)6.9 mphScattered Clouds
10:54 PM82.9 °F75.0 °F77 %29.94 in10.0 miEast (80°)6.9 mph0.00 inScattered Clouds
11:54 PM82.9 °F73.9 °F74 %29.92 in10.0 miEast (90°)4.6 mphPartly Cloudy
Hourly data recorded from PGUM, located miles away from Potts Junction, Guam







STORIES FROM OUR PARTNERS